Regional Weather Roundup
Issued by NWS

Home | Current Version | Previous Version | Graphics & Text | Print | Product List | Glossary On
Versions: 1 2 3 4 5 6 7 8 9 10 11 12 13 14 15 16 17 18 19 20 21 22 23 24 25 26 27 28 29 30 31 32 33 34 35 36 37 38 39 40 41 42 43 44 45 46 47 48 49 50
779
ASUS43 KOAX 212110
RWRNE

WEATHER ROUNDUP FOR NEBRASKA
NATIONAL WEATHER SERVICE OMAHA NE
400 PM CDT SAT OCT 21 2017

NOTES: SATELLITE DATA IS BEING USED TO AUGMENT CLOUD COVER ABOVE
       12000 FEET.
       "FAIR" INDICATES FEW OR NO CLOUDS BELOW 12,000 FEET WITH NO
       SIGNIFICANT WEATHER AND/OR OBSTRUCTIONS TO VISIBILITY.


NEZ001>004-019>022-054>056-212200-
NEBRASKA PANHANDLE

CITY           SKY/WX    TMP DP  RH WIND       PRES   REMARKS
SCOTTSBLUFF    SUNNY     59  11  15 NW20G31   29.94S
ALLIANCE       SUNNY     56  15  20 W22G28    29.91R HAZE
CHADRON        SUNNY     59   8  13 NW23G32   29.90S
GORDON         FAIR      57  20  23 W17G35    29.87R
KIMBALL        SUNNY     54  15  21 NW23G36   29.98S
SIDNEY         SUNNY     57  15  19 W22G31    29.97R
$$

NEZ057>060-069>072-079>082-212200-
SOUTHWEST NEBRASKA

CITY           SKY/WX    TMP DP  RH WIND       PRES   REMARKS
NORTH PLATTE   MOSUNNY   62  34  35 NW14G20   29.91R
IMPERIAL       SUNNY     62  21  20 NW18G26   29.93S
LEXINGTON      MOSUNNY   58  38  48 NW21      29.92S
MCCOOK         SUNNY     64  27  24 NW22G32   29.91S
OGALLALA       SUNNY     61  23  23 NW15      29.93R
$$

NEZ005>010-023>029-035>040-094-212200-
NORTH CENTRAL NEBRASKA

CITY           SKY/WX    TMP DP  RH WIND       PRES   REMARKS
VALENTINE      SUNNY     60  29  30 NW16G25   29.85R
AINSWORTH      MOSUNNY   56  32  40 NW14G24   29.87R
BROKEN BOW     MOSUNNY   55  36  48 NW15G26   29.90R
O`NEILL        CLOUDY    52  40  64 NW12G22   29.85R
ORD            CLOUDY    53  40  61 NW16G24   29.88R
THEDFORD       SUNNY     59  36  42 NW7       29.89S
$$

NEZ041-046>049-061>064-073>077-083>087-212200-
SOUTH CENTRAL NEBRASKA

CITY           SKY/WX    TMP DP  RH WIND       PRES   REMARKS
GRAND ISLAND   CLOUDY    56  39  53 NW20G28   29.90R
AURORA         CLOUDY    58  38  47 NW16G25   29.87R
HASTINGS       CLOUDY    56  38  50 NW22G29   29.91R
HEBRON         MOSUNNY   64  40  42 NW16G29   29.84R
HOLDREGE       CLOUDY    55  41  58 N15G22    29.92S
KEARNEY        CLOUDY    55  39  54 NW18      29.93R
YORK           CLOUDY    57  39  51 NW20G26   29.85R
$$

NEZ011>018-030>034-042>045-212200-
NORTHEAST NEBRASKA

CITY           SKY/WX    TMP DP  RH WIND       PRES   REMARKS
NORFOLK        CLOUDY    56  40  55 NW21G31   29.79R
ALBION         CLOUDY    55  38  54 NW20G25   29.86R
BLAIR          MOSUNNY   62  46  56 NW18G31   29.76R
COLUMBUS       CLOUDY    58  40  51 NW24G32   29.82R
FREMONT        PTSUNNY   61  44  53 NW25      29.79R
TEKAMAH        CLOUDY    60  43  53 NW20G31   29.77R
WAYNE          CLOUDY    55  38  52 NW23G33   29.80R
$$

NEZ050>053-065>068-078-088>093-212200-
SOUTHEAST NEBRASKA

CITY           SKY/WX    TMP DP  RH WIND       PRES   REMARKS
LINCOLN        CLOUDY    64  43  46 NW23G29   29.80R
OMAHA EPPLEY   PTSUNNY   65  48  54 NW29G35   29.73R
BEATRICE       PTSUNNY   65  46  49 NW22G31   29.80R
FALLS CITY     TSTM      64  60  87 SW15      29.75R FOG
NEBRASKA CITY  PTSUNNY   75  56  51 SW16G29   29.70S
PLATTSMOUTH    PTSUNNY   68  52  58 NW22G30   29.73R
$$

NEZ044-045-051>053-067-212200-
OMAHA AREA

CITY           SKY/WX    TMP DP  RH WIND       PRES   REMARKS
OMAHA EPPLEY   PTSUNNY   65  48  54 NW29G35   29.73R
BLAIR          MOSUNNY   62  46  56 NW18G31   29.76R
FREMONT        PTSUNNY   61  44  53 NW25      29.79R
MILLARD        CLOUDY    64  47  55 NW15G24   29.76R
OFFUTT AFB     MOSUNNY   65  51  58 W24G30    29.71R
PLATTSMOUTH    PTSUNNY   68  52  58 NW22G30   29.73R
WAHOO          FAIR      63  42  46 NW22G32   29.78R
$$




USA.gov is the U.S. government's official web portal to all federal, state and local government web resources and services.